[[{"header":{"parameterUnit":"m.s-1","parameterCategory":1,"la1":30.2991,"la2":30.254,"lo1":-89.0895,"lo2":-89.0444,"dy":0.0017,"dx":0.0017,"nx":28,"ny":28,"refTime":"2023-08-07T03:00:00:Z","depth":0,"parameterNumber":2,"parameterNumberName":"U-component_of_WINDS"},"data":[0,0,0,0,0,0,0,0,0,0,0,0,0,0,0,0,0,0,0,0,0,0,0,0,0,0,0,0,0,0,0,0,0,0,0,0,0,0,0,0,0,0,0,0,0,0,0,0,0,0,0,0,0,0,0,0,0,0,2.217,2.2171,0,2.2334,2.2336,2.2338,2.2364,2.2363,2.2362,2.236,2.2529,2.2535,2.2541,0,0,0,0,0,0,0,0,0,0,0,0,0,2.1878,2.1883,2.2169,2.2172,2.2174,2.2334,2.2336,2.2339,2.2365,2.2363,2.2361,2.236,2.2528,2.2534,2.2541,0,0,0,0,0,0,0,0,0,0,0,0,0,2.2019,2.1884,2.2169,2.2206,2.2211,2.2334,2.2336,2.2339,2.2365,2.2363,2.2361,2.2359,2.2525,2.2534,2.2542,2.264,0,0,2.2569,2.2573,0,0,0,0,0,0,0,0,2.2011,2.203,2.2199,2.2204,2.2209,2.2327,2.2295,2.244,2.2366,2.2307,2.236,2.2358,2.2464,2.2477,2.2513,2.2648,2.2655,2.257,2.2575,2.2579,2.2582,0,0,0,0,0,0,0,2.2002,2.2023,2.2235,2.2201,2.2208,2.2214,2.2232,2.2323,2.2395,2.2312,2.2314,2.2333,2.2466,2.2505,2.2517,2.2658,2.257,2.2578,2.2583,2.2586,2.2881,2.2884,0,0,0,0,0,0,2.1985,2.2015,2.2229,2.224,2.2103,2.2221,2.2241,2.2291,2.2394,2.2408,2.2335,2.2334,2.2491,2.2507,2.2523,2.2645,2.2579,2.2587,2.2592,2.2879,2.2882,2.2885,0,0,0,0,0,0,2.1979,2.2004,2.2223,2.2128,2.2156,2.2229,2.2285,2.2296,2.2334,2.2412,2.2425,2.2361,2.249,2.2511,2.2611,2.2651,2.2591,2.2599,2.2876,2.288,2.2883,2.2888,0,0,0,0,0,0,2.197,2.2001,2.2039,2.2129,2.2161,2.2308,2.2287,2.23,2.2349,2.2349,2.244,2.2453,2.249,2.2598,2.262,2.2662,2.2606,2.2872,2.2877,2.2882,2.2885,2.2892,2.2898,0,0,0,0,0,2.196,2.2034,2.2041,2.2067,2.221,2.231,2.2329,2.237,2.2352,2.2391,2.2441,2.245,2.2643,2.2608,2.2633,2.2678,2.287,2.2876,2.2882,2.2882,2.2891,2.2898,0,0,0,0,0,0,2.1948,2.2047,2.2055,2.2161,2.2227,2.2314,2.2364,2.2377,2.2449,2.2447,2.2494,2.2515,2.2612,2.2655,2.2614,2.2778,2.2755,2.2766,2.2747,2.2756,2.2762,2.275,2.2613,0,0,0,0,0,2.1958,2.203,2.2113,2.2198,2.223,2.2291,2.2336,2.2362,2.2432,2.246,2.2518,2.2586,2.2662,2.2711,2.2785,2.2891,2.2911,2.2935,2.2941,2.2946,2.2955,2.3015,2.3027,2.2903,2.2903,2.2903,0,0,2.1979,2.2041,2.2084,2.2197,2.2251,2.2326,2.2315,2.2394,2.245,2.2473,2.2571,2.2615,2.2694,2.2797,2.2845,2.2836,2.2994,2.2953,2.2957,2.2964,2.3022,2.3034,2.3044,2.2907,2.2907,2.2906,0,0,2.2055,2.2109,2.2187,2.2241,2.2323,2.2363,2.2381,2.2467,2.2497,2.2596,2.2615,2.2682,2.2812,2.2867,2.2912,2.3009,2.302,2.3032,2.3066,2.3124,2.3133,2.3142,2.3178,2.319,2.3041,2.3041,2.3041,0,2.2071,2.2184,2.2225,2.2304,2.2353,2.2376,2.2455,2.2506,2.2608,2.2641,2.2629,2.2792,2.2847,2.2964,2.2987,2.3023,2.3046,2.3022,2.3129,2.3138,2.3147,2.3181,2.3194,2.3042,2.3042,2.3041,2.3041,0,2.2199,2.2277,2.233,2.2427,2.2482,2.256,2.2614,2.2664,2.2685,2.2726,2.2827,2.2893,2.2982,2.3011,2.3032,2.3131,2.3123,2.3119,2.3097,2.3159,2.3192,2.3205,2.3043,2.3043,2.3042,2.3042,0,0,2.2274,2.2393,2.2412,2.2457,2.2548,2.2609,2.2688,2.2775,2.2817,2.2886,2.2955,2.3064,2.3061,2.3112,2.3139,2.319,2.3263,2.318,2.3183,2.3194,2.3377,2.338,2.3395,2.327,2.3273,2.3275,2.3371,0,2.2362,2.2504,2.2543,2.2664,2.2736,2.2759,2.2828,2.2892,2.2933,2.3,2.3045,2.3122,2.3111,2.3143,2.3193,2.3243,2.33,2.3237,2.3335,2.3338,2.3315,2.3412,2.3416,2.3503,2.3384,2.3386,2.3388,0,2.2484,2.2555,2.2683,2.2765,2.2797,2.2858,2.2941,2.3005,2.3077,2.3103,2.316,2.3183,2.3267,2.3239,2.3355,2.3311,2.3353,2.3383,2.3388,2.3399,2.3367,2.3427,2.3532,2.3545,2.3408,2.3407,2.3405,0,2.2527,2.2655,2.2748,2.2785,2.2883,2.2926,2.2969,2.3039,2.3089,2.316,2.3193,2.3273,2.3317,2.3379,2.3423,2.3399,2.3536,2.3511,2.356,2.3559,2.359,2.3587,2.3703,2.3614,2.3614,2.3614,2.3614,0,2.2622,2.2699,2.2768,2.2826,2.2913,2.2957,2.3042,2.3086,2.3148,2.3215,2.3239,2.3301,2.3355,2.3424,2.3458,2.355,2.3569,2.3593,2.3602,2.3592,2.3589,2.3621,2.3617,2.3617,2.3617,2.3616,2.3615,0,2.2685,2.2735,2.2838,2.2922,2.2945,2.3005,2.3078,2.3134,2.3175,2.3259,2.3281,2.3345,2.3428,2.3477,2.3582,2.3605,2.3706,2.3712,2.3682,2.3686,2.3733,2.3728,2.3875,2.3897,2.3792,2.3792,2.3793,0,2.2743,2.2803,2.2894,2.294,2.2983,2.3057,2.3107,2.3153,2.3204,2.3291,2.3337,2.3421,2.3491,2.3622,2.3678,2.3758,2.3767,2.3812,2.3779,2.3767,2.3769,2.3765,2.3772,2.3818,2.3819,2.382,2.3821,0,2.2841,2.2862,2.2934,2.3014,2.3074,2.3139,2.3204,2.324,2.3297,2.3353,2.3438,2.3492,2.3598,2.3682,2.3766,2.3811,2.3826,2.383,2.3846,2.3838,2.3818,2.3831,2.3699,2.3827,2.3827,2.3826,2.3826,2.3825,2.2905,2.2959,2.3032,2.3111,2.3164,2.3224,2.3282,2.3329,2.3401,2.3491,2.3513,2.3602,2.3673,2.3788,2.3835,2.3905,2.3898,2.392,2.3927,2.3932,2.3934,2.3806,2.392,2.392,2.392,2.392,2.392,0,2.3005,2.3053,2.3125,2.3215,2.3277,2.3284,2.3357,2.3408,2.3486,2.3551,2.3619,2.3716,2.3797,2.3859,2.3942,2.3987,2.3996,2.4007,2.4005,2.4015,2.3935,2.3913,2.3998,2.3998,2.3998,2.3998,2.3998,2.3998,2.3065,2.3158,2.3188,2.3307,2.3354,2.3442,2.3482,2.3538,2.359,2.3698,2.3765,2.3804,2.3869,2.3956,2.4031,2.4047,2.4077,2.4088,2.4105,2.4029,2.4021,2.4013,2.3993,2.4093,2.4094,2.418,2.4181,2.4182]},{"header":{"parameterUnit":"m.s-1","parameterCategory":1,"la1":30.2991,"la2":30.254,"lo1":-89.0895,"lo2":-89.0444,"dy":0.0017,"dx":0.0017,"nx":28,"ny":28,"refTime":"2023-08-07T03:00:00:Z","depth":0,"parameterNumber":3,"parameterNumberName":"V-component_of_WINDS"},"data":[0,0,0,0,0,0,0,0,0,0,0,0,0,0,0,0,0,0,0,0,0,0,0,0,0,0,0,0,0,0,0,0,0,0,0,0,0,0,0,0,0,0,0,0,0,0,0,0,0,0,0,0,0,0,0,0,0,0,5.2806,5.2808,0,5.294,5.2941,5.2943,5.2909,5.2906,5.2904,5.2901,5.3029,5.3034,5.304,0,0,0,0,0,0,0,0,0,0,0,0,0,5.2513,5.2519,5.2806,5.2808,5.281,5.2939,5.2941,5.2943,5.2909,5.2906,5.2903,5.29,5.3027,5.3033,5.304,0,0,0,0,0,0,0,0,0,0,0,0,0,5.2643,5.2521,5.2806,5.2809,5.281,5.2939,5.2941,5.2944,5.291,5.2906,5.2902,5.2898,5.3024,5.3033,5.3041,5.3173,0,0,5.3068,5.3072,0,0,0,0,0,0,0,0,5.2635,5.2653,5.2807,5.2809,5.2811,5.2904,5.2885,5.302,5.2911,5.2872,5.2901,5.2897,5.299,5.3001,5.3034,5.3179,5.3184,5.3069,5.3074,5.3078,5.308,0,0,0,0,0,0,0,5.2626,5.2647,5.2859,5.2809,5.2811,5.28,5.2814,5.291,5.295,5.2875,5.2873,5.289,5.299,5.3026,5.3037,5.3186,5.3069,5.3076,5.3082,5.3085,5.3445,5.3449,0,0,0,0,0,0,5.2617,5.264,5.2854,5.2863,5.2712,5.2809,5.2824,5.2878,5.295,5.2957,5.2893,5.2887,5.3013,5.3027,5.3041,5.32,5.3078,5.3086,5.3091,5.344,5.3446,5.345,0,0,0,0,0,0,5.2611,5.2637,5.2849,5.2751,5.2777,5.2818,5.2878,5.2882,5.2918,5.2963,5.2969,5.2923,5.301,5.3029,5.3141,5.3204,5.309,5.3098,5.3435,5.3442,5.3448,5.3519,0,0,0,0,0,0,5.2603,5.2635,5.2687,5.2753,5.2783,5.295,5.2882,5.2888,5.2935,5.2929,5.2993,5.3,5.3009,5.3128,5.315,5.3214,5.3105,5.343,5.3438,5.3446,5.3511,5.3527,5.3541,0,0,0,0,0,5.2592,5.27,5.269,5.2716,5.285,5.2954,5.297,5.2981,5.294,5.2992,5.302,5.2998,5.3194,5.314,5.3164,5.3232,5.3426,5.3436,5.3445,5.3504,5.3524,5.354,0,0,0,0,0,0,5.2638,5.2709,5.2698,5.2831,5.2887,5.2948,5.3014,5.3002,5.3068,5.306,5.3067,5.3082,5.3197,5.3225,5.3164,5.3362,5.3303,5.3318,5.334,5.3359,5.3373,5.3364,5.3112,0,0,0,0,0,5.2664,5.2745,5.2801,5.2912,5.2941,5.2973,5.3018,5.3022,5.3079,5.3101,5.3138,5.3192,5.3265,5.3313,5.3383,5.3515,5.3527,5.3573,5.3587,5.3599,5.3612,5.3683,5.3704,5.3482,5.3482,5.3482,0,0,5.2717,5.2766,5.2816,5.2923,5.2967,5.3048,5.2993,5.3081,5.314,5.3114,5.3223,5.3252,5.3311,5.3434,5.3489,5.3461,5.3676,5.3612,5.3621,5.3627,5.3695,5.3716,5.3735,5.3489,5.3488,5.3487,0,0,5.2856,5.2902,5.3,5.3046,5.3114,5.3134,5.3157,5.322,5.3239,5.335,5.3331,5.34,5.3527,5.3571,5.3609,5.3765,5.3746,5.3787,5.3864,5.3933,5.395,5.3966,5.4021,5.4041,5.3799,5.38,5.38,0,5.2913,5.3039,5.3051,5.3142,5.3189,5.3171,5.3269,5.3311,5.3397,5.3429,5.3396,5.3555,5.3594,5.3726,5.3764,5.3796,5.3822,5.378,5.3947,5.3963,5.3978,5.403,5.4051,5.3804,5.3804,5.3803,5.3803,0,5.3105,5.3192,5.3262,5.335,5.3404,5.3498,5.3522,5.3574,5.3573,5.3596,5.3707,5.3753,5.3833,5.3864,5.3862,5.3996,5.3976,5.3946,5.3886,5.4003,5.4053,5.4073,5.3811,5.3809,5.3808,5.3807,0,0,5.3277,5.3371,5.3397,5.3436,5.351,5.3575,5.3667,5.3748,5.3792,5.3851,5.3927,5.4035,5.4008,5.4052,5.4054,5.4115,5.4235,5.4077,5.4078,5.4104,5.4384,5.4407,5.443,5.4223,5.4226,5.423,5.4379,0,5.3423,5.3589,5.3603,5.375,5.383,5.3814,5.3893,5.3945,5.3968,5.4036,5.406,5.4137,5.4095,5.4122,5.4181,5.4208,5.4291,5.4197,5.4291,5.4294,5.4277,5.4456,5.448,5.4619,5.4398,5.4401,5.4404,0,5.3616,5.3685,5.3842,5.3905,5.3938,5.401,5.4085,5.4151,5.4208,5.4221,5.427,5.4265,5.4356,5.4293,5.4418,5.4354,5.4393,5.4412,5.4417,5.4426,5.4356,5.447,5.4663,5.4684,5.4434,5.4432,5.443,0,5.3726,5.3857,5.3968,5.4002,5.4078,5.4129,5.4162,5.4216,5.4264,5.4327,5.4358,5.443,5.447,5.4525,5.4538,5.4491,5.4662,5.4601,5.4673,5.4673,5.471,5.4708,5.4913,5.4735,5.4734,5.4734,5.4734,0,5.3888,5.3985,5.4019,5.4087,5.4194,5.4207,5.4311,5.4341,5.4389,5.446,5.4449,5.4516,5.4529,5.4597,5.4608,5.4709,5.4726,5.4737,5.4739,5.4739,5.4738,5.4765,5.4755,5.474,5.4738,5.4737,5.4736,0,5.403,5.4057,5.4177,5.4239,5.4257,5.4333,5.4385,5.4449,5.447,5.4561,5.4582,5.4616,5.4696,5.4715,5.4808,5.4815,5.4935,5.4927,5.4917,5.4917,5.4988,5.4981,5.5218,5.5249,5.5051,5.5053,5.5054,0,5.4132,5.4206,5.4277,5.4326,5.4363,5.4441,5.449,5.4504,5.4555,5.4627,5.4682,5.4761,5.4825,5.4953,5.4984,5.5055,5.5049,5.5127,5.5059,5.5057,5.505,5.5046,5.5053,5.514,5.5142,5.5144,5.5145,0,5.431,5.432,5.4393,5.4471,5.4531,5.4592,5.465,5.4689,5.4712,5.4769,5.4853,5.4903,5.5,5.5078,5.515,5.518,5.5166,5.5166,5.5187,5.5187,5.5179,5.5185,5.4953,5.5161,5.5159,5.5158,5.5157,5.5156,5.4434,5.45,5.4561,5.4642,5.4688,5.4743,5.4807,5.4837,5.4908,5.4991,5.4994,5.5085,5.5138,5.5234,5.5269,5.5338,5.5314,5.5343,5.5351,5.5358,5.5365,5.5168,5.5351,5.535,5.535,5.535,5.5349,0,5.4612,5.4651,5.4726,5.4809,5.4873,5.4857,5.492,5.4973,5.5054,5.5107,5.5172,5.5267,5.5342,5.5379,5.5454,5.5502,5.5497,5.552,5.5517,5.5524,5.5382,5.5357,5.5523,5.5523,5.5523,5.5523,5.5523,5.5523,5.4712,5.4822,5.4839,5.4971,5.5007,5.5099,5.5136,5.5186,5.5228,5.5337,5.5401,5.5425,5.5471,5.5549,5.5616,5.5625,5.5652,5.568,5.5685,5.5552,5.5534,5.5517,5.5494,5.5686,5.5686,5.5821,5.5822,5.5823]}]]